• en Suisse
  • Liste des pays
  • À 7 jours
  • Température de l'eau
  • Carte satellitaire
  • Carte météo
  • Widgets météo
  • user-avatar
    Se connecter

    Météo par heure à Holhol

    Ce jour, 26 Septembre, Mercredi

    Heure Température Précipitation Vent Pression Humidité
    00:00 +28°C° 0 mm 4 m/s 713 mmHg 75%
    01:00 +28°C° 0 mm 3 m/s 713 mmHg 76%
    02:00 +28°C° 0 mm 3 m/s 712 mmHg 76%
    03:00 +27°C° 0 mm 3 m/s 712 mmHg 77%
    04:00 +27°C° 0 mm 3 m/s 712 mmHg 78%
    05:00 +27°C° 0 mm 2 m/s 712 mmHg 78%
    06:00 +27°C° 0 mm 2 m/s 713 mmHg 78%
    07:00 +28°C° 0 mm 3 m/s 713 mmHg 72%
    08:00 +29°C° 0 mm 3 m/s 713 mmHg 67%
    09:00 +30°C° 0 mm 3 m/s 714 mmHg 58%
    10:00 +31°C° 0 mm 3 m/s 714 mmHg 53%
    11:00 +34°C° 0 mm 3 m/s 714 mmHg 48%
    12:00 +35°C° 0 mm 4 m/s 713 mmHg 42%
    13:00 +35°C° 0 mm 4 m/s 713 mmHg 42%
    14:00 +35°C° 0 mm 4 m/s 712 mmHg 42%
    15:00 +36°C° 0 mm 5 m/s 711 mmHg 42%
    16:00 +35°C° 0 mm 4 m/s 711 mmHg 45%
    17:00 +34°C° 0 mm 4 m/s 711 mmHg 48%
    18:00 +33°C° 0 mm 4 m/s 711 mmHg 51%
    19:00 +32°C° 0 mm 4 m/s 711 mmHg 55%
    20:00 +32°C° 0 mm 4 m/s 712 mmHg 59%
    21:00 +30°C° 0 mm 4 m/s 712 mmHg 63%
    22:00 +29°C° 0 mm 3 m/s 712 mmHg 66%
    23:00 +29°C° 0 mm 3 m/s 712 mmHg 68%

    Demain, 27 Septembre, Jeudi

    Heure Température Précipitation Vent Pression Humidité
    00:00 +28°C° 0 mm 3 m/s 712 mmHg 71%
    01:00 +28°C° 0 mm 3 m/s 712 mmHg 72%
    02:00 +28°C° 0 mm 2 m/s 712 mmHg 72%
    03:00 +27°C° 0 mm 2 m/s 712 mmHg 73%
    04:00 +27°C° 0 mm 2 m/s 712 mmHg 73%
    05:00 +27°C° 0 mm 2 m/s 712 mmHg 74%
    06:00 +27°C° 0 mm 2 m/s 712 mmHg 74%
    07:00 +28°C° 0 mm 2 m/s 713 mmHg 68%
    08:00 +29°C° 0 mm 2 m/s 713 mmHg 61%
    09:00 +30°C° 0 mm 2 m/s 714 mmHg 54%
    10:00 +33°C° 0 mm 3 m/s 714 mmHg 48%
    11:00 +34°C° 0 mm 3 m/s 713 mmHg 41%
    12:00 +36°C° 0 mm 4 m/s 713 mmHg 35%
    13:00 +36°C° 0 mm 4 m/s 713 mmHg 33%
    14:00 +37°C° 0 mm 4 m/s 712 mmHg 32%
    15:00 +37°C° 0 mm 4 m/s 711 mmHg 31%
    16:00 +36°C° 0 mm 4 m/s 711 mmHg 34%
    17:00 +35°C° 0 mm 4 m/s 711 mmHg 37%
    18:00 +34°C° 0 mm 4 m/s 711 mmHg 40%
    19:00 +33°C° 0 mm 4 m/s 711 mmHg 45%
    20:00 +31°C° 0 mm 3 m/s 712 mmHg 50%
    21:00 +31°C° 0 mm 3 m/s 712 mmHg 55%
    22:00 +30°C° 0 mm 3 m/s 712 mmHg 57%
    23:00 +29°C° 0 mm 2 m/s 712 mmHg 60%

    Après-demain, 28 Septembre, Vendredi

    Heure Température Précipitation Vent Pression Humidité
    00:00 +29°C° 0 mm 2 m/s 712 mmHg 62%
    01:00 +29°C° 0 mm 2 m/s 712 mmHg 63%
    02:00 +28°C° 0 mm 2 m/s 712 mmHg 63%
    03:00 +28°C° 0 mm 1 m/s 711 mmHg 64%
    04:00 +28°C° 0 mm 2 m/s 711 mmHg 65%
    05:00 +28°C° 0 mm 2 m/s 712 mmHg 66%
    06:00 +27°C° 0 mm 2 m/s 712 mmHg 67%
    07:00 +29°C° 0 mm 2 m/s 712 mmHg 60%
    08:00 +30°C° 0 mm 2 m/s 713 mmHg 54%
    09:00 +31°C° 0 mm 2 m/s 714 mmHg 47%
    10:00 +32°C° 0 mm 2 m/s 713 mmHg 41%
    11:00 +35°C° 0 mm 3 m/s 713 mmHg 35%
    12:00 +36°C° 0 mm 3 m/s 713 mmHg 29%
    13:00 +37°C° 0 mm 3 m/s 712 mmHg 27%
    14:00 +38°C° 0 mm 4 m/s 712 mmHg 26%
    15:00 +38°C° 0 mm 4 m/s 711 mmHg 24%
    16:00 +38°C° 0 mm 4 m/s 711 mmHg 25%
    17:00 +37°C° 0 mm 4 m/s 711 mmHg 27%
    18:00 +36°C° 0 mm 3 m/s 711 mmHg 28%
    19:00 +35°C° 0 mm 3 m/s 711 mmHg 31%
    20:00 +34°C° 0 mm 3 m/s 711 mmHg 34%
    21:00 +33°C° 0 mm 3 m/s 712 mmHg 37%
    22:00 +33°C° 0 mm 3 m/s 712 mmHg 40%
    23:00 +31°C° 0 mm 2 m/s 712 mmHg 43%

    29 Septembre, Samedi

    Heure Température Précipitation Vent Pression Humidité
    00:00 +30°C° 0 mm 2 m/s 712 mmHg 47%
    01:00 +30°C° 0 mm 2 m/s 711 mmHg 50%
    02:00 +29°C° 0 mm 2 m/s 711 mmHg 53%
    03:00 +29°C° 0 mm 2 m/s 710 mmHg 56%
    04:00 +28°C° 0 mm 2 m/s 711 mmHg 58%
    05:00 +28°C° 0 mm 2 m/s 711 mmHg 60%
    06:00 +28°C° 0 mm 1 m/s 712 mmHg 62%
    07:00 +29°C° 0 mm 2 m/s 712 mmHg 54%
    08:00 +30°C° 0 mm 2 m/s 713 mmHg 46%
    09:00 +31°C° 0 mm 2 m/s 713 mmHg 38%
    10:00 +34°C° 0 mm 2 m/s 713 mmHg 34%
    11:00 +35°C° 0 mm 3 m/s 713 mmHg 30%
    12:00 +36°C° 0 mm 4 m/s 712 mmHg 26%
    13:00 +36°C° 0 mm 4 m/s 712 mmHg 27%
    14:00 +37°C° 0 mm 5 m/s 711 mmHg 28%
    15:00 +37°C° 0 mm 5 m/s 710 mmHg 29%
    16:00 +36°C° 0 mm 5 m/s 710 mmHg 34%
    17:00 +35°C° 0 mm 4 m/s 711 mmHg 39%
    18:00 +33°C° 0 mm 4 m/s 711 mmHg 44%
    19:00 +33°C° 0 mm 4 m/s 711 mmHg 48%
    20:00 +31°C° 0 mm 3 m/s 712 mmHg 52%
    21:00 +30°C° 0 mm 3 m/s 712 mmHg 56%
    22:00 +30°C° 0 mm 3 m/s 712 mmHg 61%
    23:00 +29°C° 0 mm 3 m/s 712 mmHg 67%

    30 Septembre, Dimanche

    Heure Température Précipitation Vent Pression Humidité
    00:00 +29°C° 0 mm 3 m/s 712 mmHg 73%
    01:00 +28°C° 0 mm 3 m/s 711 mmHg 74%
    02:00 +28°C° 0 mm 3 m/s 711 mmHg 76%
    03:00 +28°C° 0 mm 3 m/s 711 mmHg 77%
    04:00 +28°C° 0 mm 3 m/s 711 mmHg 78%
    05:00 +27°C° 0 mm 3 m/s 712 mmHg 79%
    06:00 +27°C° 0 mm 3 m/s 713 mmHg 80%
    07:00 +28°C° 0 mm 3 m/s 713 mmHg 72%
    08:00 +30°C° 0 mm 4 m/s 714 mmHg 64%
    09:00 +32°C° 0 mm 4 m/s 714 mmHg 56%
    10:00 +33°C° 0 mm 5 m/s 714 mmHg 51%
    11:00 +34°C° 0 mm 6 m/s 713 mmHg 45%
    12:00 +35°C° 0 mm 6 m/s 713 mmHg 39%
    13:00 +35°C° 0 mm 6 m/s 712 mmHg 40%
    14:00 +35°C° 0 mm 6 m/s 712 mmHg 40%
    15:00 +35°C° 0 mm 6 m/s 711 mmHg 41%
    16:00 +34°C° 0 mm 5 m/s 711 mmHg 45%
    17:00 +33°C° 0 mm 5 m/s 711 mmHg 49%
    18:00 +32°C° 0 mm 4 m/s 711 mmHg 53%
    19:00 +31°C° 0 mm 3 m/s 712 mmHg 56%
    20:00 +30°C° 0 mm 3 m/s 712 mmHg 60%
    21:00 +30°C° 0 mm 3 m/s 713 mmHg 63%
    22:00 +29°C° 0 mm 3 m/s 712 mmHg 66%
    23:00 +29°C° 0 mm 3 m/s 712 mmHg 69%

    1 Octobre, Lundi

    Heure Température Précipitation Vent Pression Humidité
    00:00 +28°C° 0 mm 3 m/s 712 mmHg 72%
    01:00 +28°C° 0 mm 3 m/s 711 mmHg 73%
    02:00 +28°C° 0 mm 2 m/s 711 mmHg 75%
    03:00 +28°C° 0 mm 2 m/s 711 mmHg 76%
    04:00 +28°C° 0 mm 3 m/s 712 mmHg 77%
    05:00 +28°C° 0 mm 3 m/s 712 mmHg 79%
    06:00 +27°C° 0 mm 3 m/s 713 mmHg 80%
    07:00 +28°C° 0.1 mm 4 m/s 713 mmHg 76%
    08:00 +29°C° 0.1 mm 4 m/s 713 mmHg 72%
    09:00 +30°C° 0.1 mm 4 m/s 714 mmHg 68%
    10:00 +32°C° 0 mm 4 m/s 713 mmHg 63%
    11:00 +33°C° 0 mm 5 m/s 713 mmHg 58%
    12:00 +34°C° 0 mm 5 m/s 712 mmHg 53%
    13:00 +34°C° 0 mm 5 m/s 712 mmHg 51%
    14:00 +34°C° 0 mm 5 m/s 711 mmHg 49%
    15:00 +35°C° 0 mm 5 m/s 711 mmHg 48%
    16:00 +34°C° 0 mm 4 m/s 711 mmHg 49%
    17:00 +34°C° 0 mm 4 m/s 711 mmHg 51%
    18:00 +33°C° 0 mm 3 m/s 711 mmHg 52%
    19:00 +32°C° 0 mm 4 m/s 712 mmHg 58%
    20:00 +30°C° 0 mm 4 m/s 712 mmHg 63%
    21:00 +29°C° 0 mm 4 m/s 712 mmHg 68%
    22:00 +29°C° 0 mm 4 m/s 712 mmHg 71%
    23:00 +28°C° 0 mm 4 m/s 712 mmHg 74%
    Voir plus